Wind_Speed
11 9 8 6 6 4 3 3 4 4 5 5 4 4 3 2 1 2 4 4 5 6 6 6 7 8 9 10 11 12 13 14 15 16 17 18 19 19 19 19 19 19 19 19 19 19 19 19 20
14 13 11 10 10 9 8 7 7 7 7 6 5 3 1 1 3 4 6 6 7 7 7 8 9 10 11 12 13 14 15 16 17 17 18 18 19 19 19 19 19 19 20 20 21 21 22 22 22
13 13 12 11 10 9 8 7 7 6 5 4 2 1 2 4 6 7 8 8 9 9 9 10 11 12 13 14 14 15 15 15 16 16 17 17 17 17 18 19 19 20 21 22 23 23 24 24 25
10 10 9 8 7 6 4 4 3 1 0 1 3 4 6 7 8 9 9 10 10 11 11 12 13 13 13 13 13 14 14 14 14 15 15 16 16 17 18 19 20 21 22 23 24 25 25 26 27
7 6 5 4 2 1 0 1 2 3 4 6 7 8 9 10 10 10 10 11 11 12 12 13 13 13 12 12 12 12 13 13 14 14 15 16 17 18 19 20 20 21 22 23 24 25 26 27 28
4 3 2 2 2 3 4 5 6 7 8 9 10 11 11 11 11 11 11 12 12 12 12 12 12 11 11 11 11 12 13 14 14 15 16 16 17 18 19 20 20 21 22 23 23 24 25 26 27
4 4 4 4 5 6 7 8 9 9 10 10 10 11 12 11 11 11 12 12 12 12 11 11 10 10 10 11 12 12 13 14 15 16 17 17 18 19 19 21 21 22 23 24 25 26 27 27 28
6 7 7 7 8 8 9 9 10 10 10 10 11 11 12 11 12 12 12 12 11 11 10 9 9 9 10 11 12 13 14 16 16 17 18 19 20 21 22 23 24 25 26 27 28 29 30 30 31
8 8 9 9 9 10 10 10 10 11 11 11 11 11 12 12 12 11 11 11 10 9 9 8 9 9 10 11 12 14 15 16 17 18 19 20 21 23 24 25 27 28 29 30 32 33 34 34 35
9 9 9 9 10 10 10 10 10 11 12 11 11 12 12 12 11 11 11 10 10 9 9 9 9 10 11 12 13 13 14 16 17 18 19 20 22 23 25 26 28 29 31 32 33 35 36 38 39
11 10 10 10 10 10 11 11 11 12 12 11 12 12 12 12 11 11 10 10 10 10 10 10 10 10 11 12 13 14 15 16 17 19 20 21 22 24 25 27 28 30 31 33 35 36 38 39 41
11 11 10 11 11 11 11 11 12 13 12 11 12 12 12 12 12 11 11 11 11 12 12 11 11 12 12 13 14 16 17 18 19 20 21 23 24 25 27 28 30 32 33 35 36 37 39 40 42
12 12 12 12 12 12 11 12 13 15 12 12 13 13 13 13 13 13 13 13 14 14 14 14 14 14 15 16 17 19 19 21 22 22 23 25 26 28 30 31 33 35 36 38 39 39 41 42 43
14 14 14 14 13 13 12 14 15 16 13 14 15 15 15 15 15 15 16 16 16 16 16 17 17 18 19 20 21 22 23 24 25 26 27 28 30 31 33 35 37 39 40 42 43 43 44 44 45
15 15 16 16 15 15 14 15 18 16 16 17 17 17 17 18 18 18 18 18 18 19 19 20 20 21 22 23 24 25 27 28 29 30 31 32 34 35 36 38 40 42 44 46 47 48 48 48 48
17 17 17 18 17 16 15 14 22 18 18 19 20 20 20 20 20 21 21 21 21 21 22 22 23 24 26 27 28 29 30 31 33 33 35 36 37 39 40 42 43 45 47 49 51 52 52 52 51
18 18 19 20 18 17 16 14 21 24 21 20 22 23 23 23 24 24 24 24 24 24 25 25 26 28 29 30 31 32 33 35 36 37 38 39 41 42 44 45 47 48 50 52 54 55 55 55 54
19 19 19 21 20 18 17 16 19 26 26 24 24 25 25 25 27 28 27 27 27 27 28 29 30 31 32 32 33 35 36 38 39 41 42 43 44 45 47 49 50 52 53 55 57 58 58 57 57
21 20 20 21 21 20 18 18 20 24 27 27 27 28 28 28 30 29 29 29 29 30 31 32 33 34 35 35 37 38 39 41 42 44 46 47 48 49 50 52 53 55 56 58 60 60 60 59 59
22 21 21 21 22 21 19 18 22 24 27 28 28 30 30 30 32 32 31 32 32 32 33 35 36 37 38 39 41 41 43 44 45 47 49 51 51 52 54 55 56 58 59 61 62 62 60 60 60
22 23 22 23 23 23 22 16 22 25 27 29 29 30 30 31 32 33 34 34 35 35 37 39 40 41 42 43 45 45 46 47 48 51 53 54 55 56 57 58 59 60 62 63 64 63 61 61 61
22 24 24 25 25 24 24 21 22 25 26 28 29 30 30 31 33 34 35 36 37 39 41 43 44 45 46 48 48 49 50 51 52 54 55 57 58 59 59 60 61 62 63 64 64 63 61 61 62
23 25 26 27 27 26 26 25 23 25 25 28 30 30 31 32 33 34 36 38 40 42 44 46 48 49 50 51 52 53 53 54 56 57 58 59 60 61 62 63 63 63 64 64 64 62 61 62 62
26 28 29 29 28 27 26 25 25 27 27 28 30 31 31 32 32 34 36 39 41 44 46 48 50 51 52 53 54 55 56 57 58 59 60 61 62 63 63 64 65 65 65 65 64 63 62 62 62
28 30 32 32 30 29 28 27 26 31 32 32 32 32 32 32 33 34 36 38 40 43 45 47 49 51 52 54 55 56 57 58 59 60 61 62 62 62 63 64 65 65 65 65 64 64 63 62 62
29 31 33 35 35 33 30 28 26 31 34 35 36 36 35 34 34 35 36 38 40 42 44 46 48 50 52 53 54 56 57 58 59 60 62 62 62 62 63 64 65 66 66 65 65 63 63 62 62
30 31 34 36 38 37 35 32 26 31 36 39 40 39 38 37 37 38 39 40 41 42 43 45 47 49 50 52 53 54 56 57 58 60 60 61 61 62 64 64 65 66 66 65 64 63 62 62 62
32 33 35 37 40 43 42 37 33 36 37 39 40 40 39 40 40 41 41 42 42 43 44 45 46 48 49 51 53 54 55 56 58 59 60 60 62 63 64 65 65 66 65 64 64 62 61 61 61
33 34 36 39 41 44 47 45 37 38 39 44 45 44 44 43 43 43 43 43 43 44 45 46 47 48 49 51 52 52 54 55 57 58 60 62 63 63 64 65 65 65 64 64 63 61 60 60 60
35 36 37 40 42 44 48 48 38 41 46 50 50 48 48 47 47 47 46 46 46 46 47 48 48 49 49 50 51 52 53 55 57 59 62 63 63 64 64 64 64 64 63 63 61 60 59 59 60
Wind_Direction
93 94 96 102 109 117 128 131 136 143 139 135 134 135 141 160 220 258 270 269 273 277 280 285 290 293 294 294 294 293 293 292 291 290 289 288 287 286 285 283 282 280 279 278 277 276 274 273 272
88 89 91 93 97 100 101 104 108 113 118 120 124 131 152 270 287 289 284 284 284 287 290 294 297 298 298 298 298 297 296 296 295 294 293 292 291 290 289 288 287 286 285 284 283 281 280 279 277
90 90 91 91 93 96 100 99 101 105 112 120 135 206 274 285 287 288 287 286 286 290 293 296 299 300 300 300 300 300 300 300 299 298 297 296 294 293 293 292 292 291 290 289 287 286 284 282 280
87 89 90 92 93 96 97 95 91 86 96 268 272 277 280 284 285 285 285 286 288 291 294 297 299 301 302 302 303 303 304 304 303 302 301 300 299 298 297 295 294 293 291 290 289 288 286 284 282
78 78 80 83 76 62 39 303 290 285 282 280 280 280 280 282 283 283 284 285 287 290 293 297 300 302 304 306 307 308 308 309 308 307 306 305 304 302 300 298 296 294 293 291 290 288 287 285 284
54 47 31 356 322 305 295 291 287 285 283 282 281 280 280 279 280 282 284 285 286 289 293 298 301 304 307 310 312 313 313 312 311 310 309 308 306 305 303 301 298 296 294 292 291 290 288 287 285
346 334 317 306 299 298 296 293 289 287 286 284 280 278 278 277 279 281 283 284 286 290 294 298 302 306 310 314 316 316 316 315 313 312 311 309 307 305 303 301 299 297 295 294 292 291 289 288 286
321 311 303 299 296 295 295 294 290 287 284 282 279 276 277 277 277 280 282 284 286 288 292 296 301 307 312 315 317 317 316 314 313 311 310 308 307 305 303 301 299 297 296 294 292 291 289 288 286
312 304 298 294 291 290 291 291 289 285 282 280 278 276 276 276 278 279 281 282 282 284 289 293 299 306 311 313 315 315 315 314 312 311 310 310 309 307 305 303 301 299 297 295 294 292 290 288 286
309 301 296 290 286 283 285 285 283 282 281 279 277 276 277 277 277 278 278 277 276 278 283 288 294 301 307 310 313 314 314 314 314 313 314 314 313 312 310 308 306 303 301 299 297 294 292 289 287
308 300 293 289 284 281 280 281 280 279 278 277 275 274 274 276 276 274 272 271 272 274 277 282 289 296 302 306 308 310 312 313 313 314 315 316 317 316 316 314 313 310 307 304 301 298 295 292 289
306 300 296 289 285 280 279 279 280 277 276 276 274 273 272 272 271 269 267 266 268 270 274 279 285 291 296 300 302 304 307 309 311 313 314 316 316 317 317 317 316 314 312 310 306 303 299 296 292
307 303 299 294 288 282 279 279 277 276 276 274 273 272 271 270 269 267 266 265 266 269 273 278 282 287 291 296 299 301 304 306 308 309 311 312 314 315 316 317 318 317 316 314 311 308 304 300 296
308 307 303 298 293 287 282 279 274 275 276 272 273 273 271 270 269 268 266 267 267 269 273 277 281 285 289 293 297 299 302 304 305 307 308 309 310 312 314 316 317 318 317 316 314 311 308 304 300
306 307 305 301 298 293 288 283 275 275 275 273 272 272 272 271 270 270 270 270 270 272 274 277 281 285 289 292 296 299 300 302 304 305 306 307 309 310 311 313 314 315 316 316 315 313 310 307 303
301 304 303 301 301 299 294 290 282 276 272 272 272 272 272 272 272 272 272 271 271 272 274 276 280 283 287 290 294 296 299 300 302 304 305 307 308 309 310 310 311 313 314 314 313 312 310 307 304
297 300 302 301 302 303 300 294 286 282 277 274 273 272 272 273 273 272 273 274 274 274 275 276 279 282 285 289 292 295 297 299 301 303 304 305 307 308 309 309 310 311 311 312 312 311 309 307 304
293 296 299 301 304 306 306 301 286 283 282 279 276 274 273 272 271 272 274 274 274 274 275 276 278 281 284 288 290 292 295 297 299 301 302 304 305 306 307 308 309 309 310 310 310 310 308 306 304
290 294 297 300 303 307 310 308 294 286 285 283 280 278 275 272 271 272 271 271 272 273 274 275 277 279 283 286 287 290 293 296 298 299 300 302 303 304 306 306 307 308 308 309 309 309 307 305 303
289 291 294 298 302 306 311 315 301 294 290 288 285 282 279 276 273 272 270 269 270 271 272 273 275 277 281 283 286 289 291 294 296 298 299 301 302 303 304 305 305 306 307 307 308 308 306 305 303
290 292 295 299 302 306 308 313 304 298 294 291 289 287 283 280 277 274 272 270 270 270 271 273 275 278 280 282 285 288 290 293 294 295 298 299 300 301 302 303 303 304 305 306 306 306 305 304 303
293 294 297 300 303 308 309 313 307 303 300 296 293 290 288 285 281 278 275 273 272 272 274 276 277 279 281 283 286 288 290 292 293 294 297 298 299 300 301 301 301 303 304 304 305 305 304 304 303
294 295 298 300 302 306 307 310 308 302 300 298 296 294 292 290 287 284 281 278 276 275 276 277 278 281 283 285 287 289 291 292 293 295 296 297 297 298 299 299 300 301 302 303 304 304 304 304 303
295 296 297 298 300 303 305 308 309 303 300 298 297 297 296 294 292 290 287 285 283 282 282 282 284 285 287 289 290 291 291 292 293 294 295 295 296 297 297 297 298 300 301 302 303 304 304 304 303
296 298 299 300 300 302 305 308 312 307 304 301 299 298 298 297 296 294 292 289 288 287 287 287 288 288 288 289 290 290 291 291 292 292 293 293 295 295 296 296 298 300 301 302 303 304 304 303 303
297 299 300 302 303 304 305 308 314 306 303 301 299 299 299 299 298 297 296 294 293 291 290 290 290 289 289 289 289 290 290 291 291 292 292 294 295 295 295 297 298 300 301 302 303 303 303 303 303
298 299 300 302 302 303 303 305 310 303 300 300 299 300 302 302 301 300 299 297 295 293 292 291 291 290 289 289 289 289 289 290 291 291 293 294 294 294 296 297 299 300 301 302 302 303 302 302 303
299 301 302 303 304 305 304 306 315 306 302 299 299 301 302 300 299 298 298 297 296 294 293 293 292 290 290 289 289 289 289 289 290 291 293 293 294 295 297 298 299 299 300 301 302 302 302 302 303
298 299 300 301 302 303 304 306 315 307 302 298 299 301 301 299 299 298 297 297 296 294 293 293 291 290 290 290 289 289 289 290 291 292 293 294 296 297 298 299 299 300 300 300 300 301 301 301 302
297 299 300 302 302 302 301 304 311 305 300 299 302 303 303 303 302 302 301 300 299 297 296 295 294 293 292 291 291 290 290 291 292 293 294 295 296 297 298 299 299 299 299 299 299 299 299 300 301
Height
5881 5881 5882 5883 5884 5884 5884 5884 5883 5884 5884 5885 5885 5885 5886 5886 5887 5889 5887 5885 5884 5884 5883 5882 5882 5881 5880 5879 5878 5877 5876 5875 5874 5873 5871 5870 5869 5868 5867 5867 5866 5865 5864 5864 5863 5863 5863 5863 5862
5883 5883 5884 5884 5884 5884 5885 5884 5884 5885 5885 5885 5886 5886 5886 5886 5886 5886 5885 5884 5883 5883 5882 5881 5880 5879 5878 5877 5876 5875 5873 5872 5871 5870 5868 5867 5866 5865 5864 5863 5862 5861 5860 5860 5859 5858 5858 5858 5857
5885 5885 5886 5886 5886 5886 5886 5886 5885 5885 5885 5885 5886 5885 5886 5885 5885 5884 5884 5883 5882 5881 5880 5880 5879 5877 5876 5875 5874 5872 5871 5869 5868 5867 5865 5864 5863 5862 5860 5859 5858 5857 5856 5855 5854 5854 5853 5852 5852
5887 5887 5887 5888 5887 5887 5886 5886 5886 5885 5885 5885 5885 5885 5884 5884 5883 5883 5882 5881 5880 5879 5878 5877 5876 5875 5874 5872 5871 5870 5868 5867 5866 5864 5863 5861 5860 5859 5857 5856 5854 5853 5852 5850 5849 5848 5847 5847 5846
5888 5888 5888 5888 5887 5887 5886 5886 5885 5885 5885 5884 5884 5883 5882 5882 5881 5880 5880 5879 5878 5877 5876 5875 5874 5873 5871 5870 5868 5867 5866 5864 5863 5862 5860 5858 5857 5855 5854 5852 5851 5849 5848 5846 5845 5843 5842 5841 5840
5889 5889 5888 5887 5887 5886 5886 5885 5884 5884 5883 5883 5882 5881 5880 5879 5878 5878 5877 5876 5876 5875 5873 5872 5871 5870 5868 5867 5866 5864 5863 5862 5860 5859 5857 5855 5854 5852 5850 5849 5847 5845 5844 5842 5840 5839 5837 5836 5834
5890 5888 5887 5887 5886 5885 5884 5883 5883 5882 5881 5881 5879 5879 5878 5877 5876 5875 5875 5874 5873 5872 5870 5869 5868 5867 5866 5864 5863 5862 5860 5858 5857 5855 5853 5852 5850 5848 5847 5845 5843 5841 5839 5838 5836 5834 5832 5830 5829
5888 5888 5886 5885 5884 5883 5882 5881 5880 5880 5879 5878 5877 5876 5875 5875 5873 5872 5872 5871 5870 5869 5868 5866 5865 5864 5863 5861 5860 5859 5857 5855 5854 5852 5850 5848 5846 5844 5843 5841 5839 5837 5834 5832 5830 5828 5826 5824 5822
5887 5887 5885 5883 5882 5881 5880 5879 5878 5877 5876 5875 5874 5874 5873 5872 5871 5870 5869 5868 5867 5866 5865 5864 5863 5861 5860 5859 5857 5855 5854 5852 5850 5848 5846 5844 5842 5840 5838 5835 5833 5831 5829 5826 5824 5821 5819 5817 5815
5885 5884 5883 5881 5880 5879 5877 5876 5876 5874 5873 5873 5872 5871 5869 5869 5868 5867 5866 5865 5864 5863 5862 5861 5860 5858 5857 5856 5854 5852 5851 5849 5847 5844 5842 5840 5837 5835 5832 5830 5827 5825 5822 5819 5816 5814 5811 5808 5806
5882 5882 5880 5879 5877 5876 5875 5874 5873 5872 5871 5870 5869 5868 5867 5866 5865 5864 5863 5862 5861 5860 5859 5858 5857 5856 5854 5853 5851 5849 5847 5845 5843 5841 5838 5835 5833 5830 5827 5824 5821 5818 5815 5812 5809 5805 5802 5799 5796
5881 5879 5878 5876 5875 5874 5873 5872 5870 5869 5868 5868 5866 5865 5864 5863 5862 5861 5860 5859 5859 5857 5856 5855 5854 5852 5851 5849 5848 5846 5844 5841 5839 5836 5833 5830 5827 5824 5821 5818 5815 5811 5808 5804 5800 5797 5793 5789 5785
5878 5877 5875 5874 5872 5871 5870 5869 5867 5866 5865 5864 5863 5862 5861 5860 5859 5858 5857 5856 5855 5854 5853 5852 5850 5849 5847 5845 5843 5841 5839 5837 5834 5831 5828 5825 5821 5818 5814 5811 5807 5804 5800 5796 5792 5787 5783 5779 5775
5876 5874 5872 5870 5869 5868 5867 5865 5863 5863 5862 5861 5860 5859 5858 5857 5856 5855 5854 5853 5852 5851 5849 5848 5846 5844 5843 5841 5838 5836 5834 5831 5828 5825 5822 5819 5815 5811 5807 5803 5799 5795 5791 5787 5782 5778 5773 5768 5763
5872 5871 5869 5867 5866 5865 5864 5863 5859 5859 5858 5857 5856 5855 5854 5853 5852 5851 5850 5849 5848 5846 5845 5843 5841 5839 5837 5835 5833 5830 5828 5825 5822 5819 5815 5811 5808 5804 5799 5795 5791 5786 5781 5777 5772 5767 5762 5757 5751
5870 5868 5866 5864 5863 5861 5862 5860 5855 5854 5853 5853 5852 5851 5850 5849 5848 5847 5845 5844 5843 5841 5840 5838 5836 5834 5832 5829 5827 5824 5821 5818 5814 5811 5807 5804 5800 5795 5791 5786 5782 5777 5772 5766 5761 5756 5750 5745 5739
5866 5865 5863 5861 5860 5858 5857 5856 5852 5848 5848 5847 5846 5845 5845 5844 5842 5841 5839 5838 5837 5836 5834 5832 5830 5828 5826 5823 5820 5817 5814 5810 5807 5803 5799 5795 5791 5786 5782 5777 5772 5767 5761 5755 5750 5744 5738 5732 5727
5863 5861 5859 5857 5856 5854 5853 5852 5848 5843 5842 5841 5840 5839 5838 5837 5835 5834 5833 5831 5830 5829 5827 5825 5823 5821 5818 5816 5813 5810 5806 5802 5798 5794 5790 5786 5782 5777 5772 5767 5761 5756 5750 5744 5738 5732 5726 5719 5713
5858 5857 5856 5854 5851 5850 5849 5847 5842 5838 5836 5835 5833 5832 5831 5830 5827 5826 5825 5824 5823 5821 5819 5817 5815 5813 5810 5808 5804 5801 5798 5794 5790 5785 5780 5776 5772 5767 5761 5756 5750 5744 5738 5732 5725 5719 5712 5705 5699
5854 5853 5851 5850 5847 5846 5845 5843 5836 5833 5830 5828 5826 5824 5823 5822 5820 5819 5817 5816 5815 5813 5811 5809 5806 5804 5801 5798 5795 5792 5788 5785 5780 5775 5770 5765 5761 5756 5750 5744 5738 5732 5726 5719 5712 5706 5698 5692 5685
5849 5848 5847 5845 5843 5842 5841 5840 5832 5828 5824 5822 5820 5817 5815 5814 5812 5811 5810 5808 5806 5804 5802 5799 5797 5794 5791 5788 5785 5782 5778 5774 5770 5764 5759 5754 5749 5744 5738 5732 5726 5719 5713 5706 5699 5692 5685 5678 5671
5845 5843 5842 5840 5838 5836 5834 5833 5829 5823 5818 5815 5813 5810 5808 5806 5805 5803 5801 5800 5798 5795 5792 5790 5787 5784 5781 5777 5774 5771 5767 5763 5759 5753 5749 5743 5737 5731 5726 5719 5712 5706 5700 5693 5686 5678 5671 5663 5656
5839 5838 5836 5834 5832 5831 5828 5827 5824 5818 5814 5810 5806 5803 5801 5799 5797 5795 5793 5791 5789 5786 5783 5780 5777 5774 5770 5767 5764 5760 5756 5752 5747 5742 5736 5730 5724 5718 5712 5705 5699 5692 5686 5679 5671 5664 5657 5649 5641
5833 5832 5830 5829 5827 5826 5823 5821 5818 5812 5808 5804 5800 5797 5794 5793 5790 5788 5785 5783 5780 5777 5774 5771 5768 5764 5761 5757 5753 5749 5744 5739 5734 5729 5724 5717 5711 5705 5698 5691 5684 5678 5671 5664 5656 5649 5642 5634 5625
5828 5826 5823 5821 5820 5819 5817 5814 5812 5805 5800 5796 5794 5791 5788 5786 5783 5780 5777 5774 5771 5768 5764 5761 5758 5754 5750 5745 5741 5736 5731 5726 5721 5715 5709 5703 5697 5691 5683 5676 5670 5663 5656 5649 5641 5634 5626 5618 5610
5823 5820 5817 5814 5812 5811 5810 5808 5807 5799 5793 5788 5785 5783 5781 5779 5776 5772 5769 5765 5762 5758 5754 5750 5746 5742 5737 5733 5728 5723 5718 5712 5707 5701 5695 5689 5683 5676 5669 5662 5655 5648 5641 5633 5626 5618 5610 5602 5594
5816 5814 5811 5807 5803 5802 5801 5801 5801 5793 5786 5781 5777 5774 5772 5770 5766 5763 5759 5755 5751 5748 5743 5739 5735 5730 5725 5720 5715 5710 5704 5698 5693 5686 5680 5674 5667 5661 5654 5647 5640 5633 5626 5618 5610 5603 5595 5587 5578
5810 5807 5804 5799 5794 5790 5789 5791 5792 5784 5778 5773 5769 5766 5765 5761 5757 5753 5749 5745 5741 5736 5732 5727 5723 5718 5712 5707 5701 5696 5690 5684 5678 5671 5665 5658 5652 5645 5639 5632 5625 5618 5610 5602 5595 5587 5579 5571 5563
5804 5801 5796 5792 5788 5783 5777 5780 5781 5773 5766 5762 5759 5757 5754 5751 5747 5743 5739 5735 5730 5725 5720 5715 5710 5705 5699 5693 5688 5682 5676 5670 5663 5657 5650 5643 5637 5630 5624 5617 5609 5602 5595 5587 5579 5572 5564 5556 5548
5796 5793 5790 5786 5781 5774 5768 5770 5771 5763 5755 5749 5747 5745 5741 5737 5733 5729 5725 5721 5717 5712 5707 5702 5696 5690 5685 5679 5673 5668 5661 5655 5648 5642 5635 5628 5622 5615 5608 5601 5594 5586 5579 5571 5564 5556 5549 5541 5533